| time (UTC) | temp F | wind direction | speed MPH | gust MPH | rain 1hr in | rain 24hr in | rain mn in | humidity % | barometer mb |
| 20260504234204 | 67 | 203 | 1.0 | 3.0 | 0.00 | 0.00 | 0.00 | 54 | 1007.8 |
| 20260504233705 | 68 | 203 | 1.0 | 3.0 | 0.00 | 0.00 | 0.00 | 52 | 1007.7 |
| 20260504233204 | 70 | 202 | 3.0 | 6.0 | 0.00 | 0.00 | 0.00 | 47 | 1007.7 |
| 20260504232704 | 70 | 177 | 2.0 | 6.0 | 0.00 | 0.00 | 0.00 | 46 | 1007.6 |
| 20260504231704 | 71 | 182 | 3.0 | 9.0 | 0.00 | 0.00 | 0.00 | 45 | 1007.7 |
| 20260504231204 | 71 | 154 | 3.0 | 6.0 | 0.00 | 0.00 | 0.00 | 43 | 1007.7 |
| 20260504230704 | 72 | 184 | 3.0 | 8.0 | 0.00 | 0.00 | 0.00 | 42 | 1007.7 |
| 20260504230205 | 72 | 191 | 3.0 | 12.0 | 0.00 | 0.00 | 0.00 | 42 | 1007.8 |
| 20260504225205 | 72 | 211 | 3.0 | 12.0 | 0.00 | 0.00 | 0.00 | 42 | 1007.7 |
| 20260504224705 | 73 | 195 | 3.0 | 12.0 | 0.00 | 0.00 | 0.00 | 41 | 1007.7 |
| 20260504224204 | 73 | 183 | 3.0 | 12.0 | 0.00 | 0.00 | 0.00 | 42 | 1007.7 |
| 20260504223705 | 73 | 186 | 7.0 | 18.0 | 0.00 | 0.00 | 0.00 | 41 | 1007.7 |
| 20260504223204 | 73 | 185 | 3.0 | 14.0 | 0.00 | 0.00 | 0.00 | 41 | 1007.7 |
| 20260504222705 | 73 | 188 | 6.0 | 15.0 | 0.00 | 0.00 | 0.00 | 40 | 1007.7 |
| 20260504222204 | 73 | 186 | 6.0 | 13.0 | 0.00 | 0.00 | 0.00 | 39 | 1007.8 |
| 20260504221705 | 74 | 190 | 6.0 | 14.0 | 0.00 | 0.00 | 0.00 | 40 | 1007.8 |
| 20260504221204 | 74 | 187 | 6.0 | 14.0 | 0.00 | 0.00 | 0.00 | 39 | 1007.8 |
| 20260504220705 | 74 | 173 | 3.0 | 9.0 | 0.00 | 0.00 | 0.00 | 40 | 1007.8 |
| 20260504215704 | 74 | 194 | 4.0 | 9.0 | 0.00 | 0.00 | 0.00 | 40 | 1007.8 |
| 20260504215204 | 74 | 178 | 2.0 | 15.0 | 0.00 | 0.00 | 0.00 | 39 | 1007.8 |
| 20260504214704 | 74 | 217 | 3.0 | 7.0 | 0.00 | 0.00 | 0.00 | 39 | 1007.7 |
| 20260504214204 | 74 | 212 | 7.0 | 13.0 | 0.00 | 0.00 | 0.00 | 40 | 1007.7 |
| 20260504213704 | 74 | 200 | 5.0 | 10.0 | 0.00 | 0.00 | 0.00 | 39 | 1007.7 |
| 20260504212704 | 76 | 161 | 2.0 | 8.0 | 0.00 | 0.00 | 0.00 | 37 | 1007.7 |
| 20260504212204 | 76 | 180 | 5.0 | 12.0 | 0.00 | 0.00 | 0.00 | 36 | 1007.7 |
| 20260504211704 | 76 | 181 | 5.0 | 12.0 | 0.00 | 0.00 | 0.00 | 34 | 1007.7 |
| 20260504211204 | 76 | 217 | 3.0 | 9.0 | 0.00 | 0.00 | 0.00 | 35 | 1007.6 |
| 20260504210704 | 76 | 196 | 3.0 | 13.0 | 0.00 | 0.00 | 0.00 | 36 | 1007.6 |
| 20260504210205 | 76 | 210 | 2.0 | 8.0 | 0.00 | 0.00 | 0.00 | 34 | 1007.6 |
| 20260504205705 | 76 | 240 | 5.0 | 10.0 | 0.00 | 0.00 | 0.00 | 35 | 1007.6 |
| 20260504205205 | 77 | 203 | 3.0 | 8.0 | 0.00 | 0.00 | 0.00 | 34 | 1007.7 |
| 20260504204704 | 76 | 195 | 2.0 | 7.0 | 0.00 | 0.00 | 0.00 | 36 | 1007.6 |
| 20260504204204 | 76 | 203 | 2.0 | 7.0 | 0.00 | 0.00 | 0.00 | 34 | 1007.7 |
| 20260504203704 | 76 | 263 | 3.0 | 7.0 | 0.00 | 0.00 | 0.00 | 33 | 1007.7 |
| 20260504203204 | 76 | 263 | 3.0 | 7.0 | 0.00 | 0.00 | 0.00 | 34 | 1007.8 |
| 20260504202705 | 76 | 315 | 5.0 | 8.0 | 0.00 | 0.00 | 0.00 | 35 | 1007.9 |
| 20260504202204 | 77 | 219 | 5.0 | 10.0 | 0.00 | 0.00 | 0.00 | 35 | 1008.1 |
| 20260504201704 | 76 | 243 | 3.0 | 10.0 | 0.00 | 0.00 | 0.00 | 35 | 1008.1 |
| 20260504201205 | 76 | 214 | 2.0 | 7.0 | 0.00 | 0.00 | 0.00 | 34 | 1008.1 |
| 20260504200705 | 76 | 241 | 3.0 | 9.0 | 0.00 | 0.00 | 0.00 | 35 | 1008.3 |
| 20260504195704 | 77 | 236 | 2.0 | 12.0 | 0.00 | 0.00 | 0.00 | 37 | 1008.4 |
| 20260504195204 | 77 | 198 | 1.0 | 5.0 | 0.00 | 0.00 | 0.00 | 35 | 1008.4 |
| 20260504194204 | 76 | 166 | 3.0 | 7.0 | 0.00 | 0.00 | 0.00 | 34 | 1008.7 |
| 20260504193204 | 75 | 219 | 3.0 | 8.0 | 0.00 | 0.00 | 0.00 | 36 | 1008.8 |
| 20260504192705 | 76 | 250 | 3.0 | 9.0 | 0.00 | 0.00 | 0.00 | 38 | 1009.0 |
| 20260504192204 | 76 | 217 | 4.0 | 9.0 | 0.00 | 0.00 | 0.00 | 40 | 1009.0 |
| 20260504191204 | 76 | 278 | 2.0 | 7.0 | 0.00 | 0.00 | 0.00 | 39 | 1009.2 |
| 20260504190704 | 76 | 197 | 4.0 | 10.0 | 0.00 | 0.00 | 0.00 | 38 | 1009.2 |
| 20260504190204 | 75 | 174 | 2.0 | 10.0 | 0.00 | 0.00 | 0.00 | 38 | 1009.3 |
| 20260504185705 | 75 | 217 | 6.0 | 17.0 | 0.00 | 0.00 | 0.00 | 38 | 1009.5 |
| 20260504185204 | 75 | 268 | 3.0 | 7.0 | 0.00 | 0.00 | 0.00 | 40 | 1009.5 |
| 20260504184704 | 75 | 206 | 3.0 | 8.0 | 0.00 | 0.00 | 0.00 | 38 | 1009.7 |
| 20260504184205 | 74 | 209 | 4.0 | 13.0 | 0.00 | 0.00 | 0.00 | 39 | 1009.8 |
| 20260504183705 | 75 | 259 | 5.0 | 13.0 | 0.00 | 0.00 | 0.00 | 36 | 1009.9 |
| 20260504183206 | 75 | 212 | 3.0 | 12.0 | 0.00 | 0.00 | 0.00 | 37 | 1009.8 |
| 20260504182705 | 75 | 254 | 3.0 | 9.0 | 0.00 | 0.00 | 0.00 | 37 | 1009.9 |
| 20260504182205 | 74 | 225 | 5.0 | 10.0 | 0.00 | 0.00 | 0.00 | 39 | 1010.0 |
| 20260504180706 | 74 | 289 | 3.0 | 12.0 | 0.00 | 0.00 | 0.00 | 36 | 1010.3 |
| 20260504180206 | 74 | 256 | 5.0 | 12.0 | 0.00 | 0.00 | 0.00 | 37 | 1010.4 |
| 20260504175705 | 73 | 212 | 4.0 | 9.0 | 0.00 | 0.00 | 0.00 | 39 | 1010.4 |
| 20260504175206 | 74 | 207 | 3.0 | 8.0 | 0.00 | 0.00 | 0.00 | 40 | 1010.4 |
| 20260504174705 | 73 | 234 | 5.0 | 12.0 | 0.00 | 0.00 | 0.00 | 39 | 1010.5 |
| 20260504174205 | 72 | 246 | 3.0 | 8.0 | 0.00 | 0.00 | 0.00 | 38 | 1010.6 |
| 20260504173705 | 73 | 218 | 2.0 | 8.0 | 0.00 | 0.00 | 0.00 | 38 | 1010.6 |
| 20260504173205 | 73 | 214 | 2.0 | 7.0 | 0.00 | 0.00 | 0.00 | 41 | 1010.7 |
| 20260504172705 | 73 | 202 | 4.0 | 10.0 | 0.00 | 0.00 | 0.00 | 37 | 1010.8 |
| 20260504172205 | 73 | 188 | 3.0 | 9.0 | 0.00 | 0.00 | 0.00 | 43 | 1010.8 |
| 20260504171705 | 72 | 195 | 3.0 | 10.0 | 0.00 | 0.00 | 0.00 | 40 | 1010.9 |
| 20260504171205 | 72 | 302 | 2.0 | 9.0 | 0.00 | 0.00 | 0.00 | 41 | 1011.0 |
| 20260504170706 | 72 | 206 | 3.0 | 10.0 | 0.00 | 0.00 | 0.00 | 39 | 1011.1 |
| 20260504170204 | 72 | 191 | 3.0 | 12.0 | 0.00 | 0.00 | 0.00 | 42 | 1011.1 |
| 20260504150705 | 65 | 187 | 5.0 | 9.0 | 0.00 | 0.00 | 0.00 | 46 | 1012.8 |
| 20260504150204 | 65 | 174 | 4.0 | 8.0 | 0.00 | 0.00 | 0.00 | 46 | 1012.8 |
| 20260504140705 | 59 | 183 | 3.0 | 6.0 | 0.00 | 0.00 | 0.00 | 50 | 1013.5 |
| 20260504140205 | 59 | 195 | 2.0 | 6.0 | 0.00 | 0.00 | 0.00 | 50 | 1013.4 |
| 20260504130704 | 54 | 184 | 2.0 | 3.0 | 0.00 | 0.00 | 0.00 | 53 | 1013.9 |
| 20260504130204 | 53 | 175 | 1.0 | 2.0 | 0.00 | 0.00 | 0.00 | 56 | 1013.9 |
| 20260504120204 | 47 | 200 | 1.0 | 2.0 | 0.00 | 0.00 | 0.00 | 62 | 1014.3 |
| 20260504110704 | 41 | 233 | 0.0 | 0.0 | 0.00 | 0.00 | 0.00 | 84 | 1014.2 |
| 20260504110204 | 41 | 233 | 0.0 | 0.0 | 0.00 | 0.00 | 0.00 | 84 | 1014.2 |
| 20260504100204 | 37 | 233 | 0.0 | 0.0 | 0.00 | 0.00 | 0.00 | 85 | 1014.4 |
| 20260504081705 | 37 | 298 | 0.0 | 0.0 | 0.00 | 0.00 | 0.00 | 83 | 1014.6 |
| 20260504081204 | 37 | 298 | 0.0 | 0.0 | 0.00 | 0.00 | 0.00 | 84 | 1014.6 |
| 20260504080705 | 37 | 298 | 0.0 | 0.0 | 0.00 | 0.00 | 0.00 | 84 | 1014.7 |
| 20260504080205 | 37 | 298 | 0.0 | 0.0 | 0.00 | 0.00 | 0.00 | 83 | 1014.6 |
| 20260504070205 | 38 | 298 | 0.0 | 0.0 | 0.00 | 0.00 | 0.00 | 81 | 1014.7 |
| 20260504050705 | 40 | 298 | 0.0 | 0.0 | 0.00 | 0.00 | 0.00 | 76 | 1014.8 |
| 20260504050205 | 40 | 298 | 0.0 | 0.0 | 0.00 | 0.00 | 0.00 | 76 | 1014.8 |
| 20260504045705 | 40 | 298 | 0.0 | 0.0 | 0.00 | 0.00 | 0.00 | 76 | 1014.8 |
| 20260504045204 | 40 | 298 | 0.0 | 0.0 | 0.00 | 0.00 | 0.00 | 77 | 1014.8 |
| 20260504044705 | 40 | 298 | 0.0 | 0.0 | 0.00 | 0.00 | 0.00 | 76 | 1014.8 |
| 20260504044205 | 40 | 298 | 0.0 | 0.0 | 0.00 | 0.00 | 0.00 | 75 | 1014.8 |
| 20260504043705 | 41 | 298 | 0.0 | 0.0 | 0.00 | 0.00 | 0.00 | 76 | 1014.8 |
| 20260504043205 | 41 | 298 | 0.0 | 0.0 | 0.00 | 0.00 | 0.00 | 74 | 1014.8 |
| 20260504042705 | 42 | 298 | 0.0 | 0.0 | 0.00 | 0.00 | 0.00 | 73 | 1014.8 |
| 20260504042205 | 42 | 298 | 0.0 | 0.0 | 0.00 | 0.00 | 0.00 | 69 | 1014.8 |
| 20260504041705 | 42 | 298 | 0.0 | 0.0 | 0.00 | 0.00 | 0.00 | 70 | 1014.7 |
| 20260504041205 | 42 | 298 | 0.0 | 0.0 | 0.00 | 0.00 | 0.00 | 70 | 1014.8 |
| 20260504040705 | 42 | 298 | 0.0 | 0.0 | 0.00 | 0.00 | 0.00 | 70 | 1014.8 |
| 20260504040205 | 42 | 298 | 0.0 | 0.0 | 0.00 | 0.00 | 0.00 | 70 | 1014.9 |
| 20260504035705 | 41 | 298 | 0.0 | 0.0 | 0.00 | 0.00 | 0.00 | 72 | 1014.9 |
| 20260504035204 | 41 | 298 | 0.0 | 0.0 | 0.00 | 0.00 | 0.00 | 73 | 1014.8 |
| 20260504034704 | 41 | 298 | 0.0 | 2.0 | 0.00 | 0.00 | 0.00 | 73 | 1014.8 |
| 20260504034204 | 42 | 298 | 1.0 | 1.0 | 0.00 | 0.00 | 0.00 | 72 | 1014.7 |
| 20260504033704 | 43 | 298 | 0.0 | 0.0 | 0.00 | 0.00 | 0.00 | 72 | 1014.6 |
| 20260504033204 | 44 | 298 | 0.0 | 2.0 | 0.00 | 0.00 | 0.00 | 70 | 1014.5 |
| 20260504032204 | 44 | 298 | 0.0 | 1.0 | 0.00 | 0.00 | 0.00 | 69 | 1014.5 |
| 20260504031705 | 45 | 298 | 0.0 | 0.0 | 0.00 | 0.00 | 0.00 | 67 | 1014.6 |
| 20260504031205 | 46 | 298 | 0.0 | 2.0 | 0.00 | 0.00 | 0.00 | 62 | 1014.6 |
| 20260504030705 | 46 | 298 | 0.0 | 1.0 | 0.00 | 0.00 | 0.00 | 63 | 1014.4 |
| 20260504030205 | 46 | 298 | 1.0 | 1.0 | 0.00 | 0.00 | 0.00 | 62 | 1014.4 |
| 20260504025205 | 45 | 298 | 1.0 | 1.0 | 0.00 | 0.00 | 0.00 | 65 | 1014.4 |
| 20260504024205 | 45 | 298 | 0.0 | 2.0 | 0.00 | 0.00 | 0.00 | 66 | 1014.5 |
| 20260504023704 | 44 | 298 | 0.0 | 1.0 | 0.00 | 0.00 | 0.00 | 67 | 1014.5 |
| 20260504022704 | 47 | 298 | 0.0 | 2.0 | 0.00 | 0.00 | 0.00 | 60 | 1014.4 |
| 20260504022204 | 47 | 298 | 1.0 | 1.0 | 0.00 | 0.00 | 0.00 | 62 | 1014.3 |
| 20260504021704 | 46 | 298 | 1.0 | 1.0 | 0.00 | 0.00 | 0.00 | 61 | 1014.3 |
| 20260504021204 | 46 | 298 | 0.0 | 0.0 | 0.00 | 0.00 | 0.00 | 64 | 1014.3 |
| 20260504020704 | 46 | 298 | 0.0 | 0.0 | 0.00 | 0.00 | 0.00 | 63 | 1014.3 |
| 20260504015704 | 46 | 298 | 0.0 | 0.0 | 0.00 | 0.00 | 0.00 | 67 | 1014.3 |
| 20260504015205 | 47 | 298 | 0.0 | 0.0 | 0.00 | 0.00 | 0.00 | 64 | 1014.2 |
| 20260504014704 | 48 | 298 | 0.0 | 0.0 | 0.00 | 0.00 | 0.00 | 63 | 1014.2 |
| 20260504014204 | 48 | 298 | 0.0 | 2.0 | 0.00 | 0.00 | 0.00 | 61 | 1014.2 |
| 20260504013704 | 48 | 298 | 1.0 | 1.0 | 0.00 | 0.00 | 0.00 | 63 | 1014.2 |
| 20260504013205 | 47 | 298 | 1.0 | 1.0 | 0.00 | 0.00 | 0.00 | 64 | 1014.2 |
| 20260504012705 | 47 | 298 | 0.0 | 1.0 | 0.00 | 0.00 | 0.00 | 64 | 1014.2 |
| 20260504012205 | 47 | 298 | 0.0 | 0.0 | 0.00 | 0.00 | 0.00 | 65 | 1014.1 |
| 20260504011704 | 48 | 298 | 0.0 | 1.0 | 0.00 | 0.00 | 0.00 | 63 | 1014.1 |
| 20260504011204 | 49 | 298 | 0.0 | 2.0 | 0.00 | 0.00 | 0.00 | 62 | 1014.0 |
| 20260504010704 | 49 | 298 | 0.0 | 2.0 | 0.00 | 0.00 | 0.00 | 61 | 1013.9 |
| 20260504010204 | 49 | 298 | 1.0 | 1.0 | 0.00 | 0.00 | 0.00 | 59 | 1013.9 |
| 20260504005704 | 49 | 298 | 0.0 | 1.0 | 0.00 | 0.00 | 0.00 | 60 | 1013.8 |
| 20260504005204 | 49 | 298 | 0.0 | 2.0 | 0.00 | 0.00 | 0.00 | 57 | 1013.8 |
| 20260504004704 | 49 | 298 | 0.0 | 1.0 | 0.00 | 0.00 | 0.00 | 61 | 1013.8 |
| 20260504004204 | 49 | 298 | 0.0 | 1.0 | 0.00 | 0.00 | 0.00 | 59 | 1013.8 |
| 20260504003705 | 50 | 298 | 0.0 | 2.0 | 0.00 | 0.00 | 0.00 | 56 | 1013.8 |
| 20260504003204 | 50 | 298 | 0.0 | 1.0 | 0.00 | 0.00 | 0.00 | 57 | 1013.7 |
| 20260504002705 | 50 | 298 | 0.0 | 2.0 | 0.00 | 0.00 | 0.00 | 57 | 1013.7 |
| 20260504002205 | 50 | 298 | 1.0 | 2.0 | 0.00 | 0.00 | 0.00 | 54 | 1013.6 |
| 20260504001206 | 51 | 298 | 0.0 | 0.0 | 0.00 | 0.00 | 0.00 | 54 | 1013.6 |
| 20260504000705 | 51 | 298 | 0.0 | 0.0 | 0.00 | 0.00 | 0.00 | 53 | 1013.5 |
| 20260504000205 | 52 | 298 | 0.0 | 0.0 | 0.00 | 0.00 | 0.00 | 51 | 1013.5 |
| 20260503235705 | 52 | 298 | 0.0 | 2.0 | 0.00 | 0.00 | 0.00 | 55 | 1013.4 |
| 20260503235205 | 53 | 298 | 1.0 | 2.0 | 0.00 | 0.00 | 0.00 | 50 | 1013.4 |
| 20260503234705 | 53 | 298 | 1.0 | 1.0 | 0.00 | 0.00 | 0.00 | 49 | 1013.3 |